Regional Weather Roundup
Issued by NWS Upton, NY

Current Version | Previous Version | Text Only | Print | Product List | Glossary Off
Versions: 1 2 3 4 5 6 7 8 9 10 11 12 13 14 15 16 17 18 19 20 21 22 23 24 25 26 27 28 29 30 31 32 33 34 35 36 37 38 39 40 41 42 43 44 45 46 47 48 49 50
369 ASUS41 KOKX 211808 RWROKX REGIONAL WEATHER ROUNDUP NATIONAL WEATHER SERVICE NEW YORK NY 200 PM EDT SAT OCT 21 2017 NOTE: "FAIR" INDICATES FEW OR NO CLOUDS BELOW 12,000 FEET WITH NO SIGNIFICANT WEATHER AND/OR OBSTRUCTIONS TO VISIBILITY. NYZ071-072-176-178-NJZ106-104-211900- NEW YORK CITY METRO AREA CITY SKY/WX TMP DP RH WIND PRES REMARKS Central Park SUNNY 77 35 21 CALM 30.33F Bronx Bot Gard N/A 77 37 24 SW8 30.33R LaGuardia APRT MOSUNNY 79 44 28 W6 30.30F Kennedy INTL PTSUNNY 75 43 31 S9 30.32F Breezy Point NOT AVBL Newark/Liberty PTSUNNY 80 32 17 SW7 30.30F Teterboro SUNNY 79 39 23 S6 30.29F $$ NYZ177-179-078>081-211900- LONG ISLAND NEW YORK CITY SKY/WX TMP DP RH WIND PRES REMARKS Jones Beach N/A 68 N/A N/A SW5 N/A Matinecock PT N/A 73 N/A N/A SW7 N/A Farmingdale SUNNY 74 47 38 S8 30.31F MacArthur/ISP PTSUNNY 72 51 47 S7 30.31S Shirley SUNNY 72 51 47 S9 30.32S Mt Sinai Harb N/A N/A N/A N/A NW1 N/A Westhampton SUNNY 71 41 33 S6 30.32F East Hampton FAIR 69 40 34 S6 30.30F Montauk N/A 69 42 37 VRB6 30.31F $$ NYZ052-065-067-211900- HUDSON VALLEY CITY SKY/WX TMP DP RH WIND PRES REMARKS White Plains SUNNY 77 38 24 NW6 30.30F Larchmont Harb N/A 72 N/A N/A S8 N/A Croton On Huds N/A 73 N/A N/A SE5 N/A Newburgh NOT AVBL Montgomery SUNNY 76 44 32 SW6 30.28F Poughkeepsie SUNNY 76 43 30 W6 30.28F Albany MOSUNNY 73 43 33 CALM 30.29F $$ NJZ001-105-106-008-010-013-015-019>022-104-211900- NEW JERSEY CITY SKY/WX TMP DP RH WIND PRES REMARKS Newark/Liberty PTSUNNY 80 32 17 SW7 30.30F Teterboro SUNNY 79 39 23 S6 30.29F Caldwell SUNNY 76 42 29 S6 30.31F Somerville SUNNY 79 39 23 CALM 30.30F Linden FAIR 78 34 20 CALM 30.30F Perth Amboy N/A 73 N/A N/A SW5 N/A Sussex SUNNY 76 38 25 SW8 30.31F Andover N/A 75 39 27 SW6 30.32F Trenton SUNNY 77 38 24 CALM 30.32F Millville SUNNY 78 47 33 VRB5 30.33F Atlantic City SUNNY 74 44 34 SE3 30.33F Wrightstown SUNNY 76 40 27 S5 30.29F Toms River N/A 78 38 23 SE9 30.33F Belmar SUNNY 76 40 27 SE8 30.33F $$ PAZ047>061-062-071-211900- EASTERN PENNSYLVANIA CITY SKY/WX TMP DP RH WIND PRES REMARKS Philadelphia PTSUNNY 75 41 29 S3 30.32F Allentown SUNNY 76 41 28 SW5 30.33F Scranton SUNNY 72 41 32 W6 30.33F $$ CTZ002-004>006-009-010-012-RIZ004-006-007-MAZ004-011-015-211900- SOUTHERN NEW ENGLAND IN CT CITY SKY/WX TMP DP RH WIND PRES REMARKS Bradley INTL MOSUNNY 78 41 26 S8 30.27F Hartford LGT RAIN 79 38 22 SW5 30.27F Danbury SUNNY 78 38 23 SW10 30.31F Wtrbury/Oxford SUNNY 76 36 23 VRB3 30.31F Norwalk Harbor NOT AVBL Bridgeport SUNNY 70 51 51 SW8 30.30F Meriden SUNNY 78 40 25 SW5 30.28F New Haven SUNNY 69 50 50 S8 30.30F Chester FAIR 77 39 25 CALM 30.29F Groton SUNNY 67 53 61 S8 30.29F Wilimantic SUNNY 78 34 20 W8 30.28F IN RI CITY SKY/WX TMP DP RH WIND PRES REMARKS Providence MOSUNNY 72 47 40 SE12 30.27F Block Island SUNNY 68 46 45 SW15 30.31F Westerly SUNNY 71 46 40 SW6 30.30F IN MA CITY SKY/WX TMP DP RH WIND PRES REMARKS Boston MOSUNNY 75 42 30 SW5 30.24F Worcester SUNNY 71 35 26 W14 30.29F Westfield SUNNY 77 41 27 S7 30.27F Provincetown SUNNY 68 51 54 S13 30.27F Nantucket SUNNY 65 52 62 SW13 30.30F $$ ANZ330-335-338-340-345-350-353-355-211900- COASTAL MARINE OBSERVATIONS STATION/POSITION TIME SKY/WX TEMP WIND PRES VSBY WAVE AIR SEA DIR/SP/G HT/PER (UTC) (F) (DEG/KT/KT) (MB) (MI) (FT/S) NY HARB ENTRANCE 1650 64 65 230/ 4/ 4 1026.6 1/ 8 20 S FIRE ISLAND 1650 66 66 240/ 2/ 2 1027.3 2/ 8 GREAT SOUTH BAY 1730 64 62 210/ 6/ 6 N/A 15 E BARNEGAT LI NOT AVBL HUDSON CANYON 1650 65 66 110/ 4/ 4 1026.7 2/ 8 KINGS POINT 1748 77 65 320/ 3/ 4 1026.8 EXECUTION ROCKS 1730 72 180/ 4/ 6 N/A WESTERN LI SOUND 1649 70 220/ 6/ 8 N/A 1 CENTRAL LI SOUND 1730 66 220/ 6/ 6 N/A 0 EASTERN LI SOUND NOT AVBL ROBBINS REEF 1748 72 150/ 6/ 7 1026.9 $$ >>>>>>>>>>>>>>>>>>>>>>>>>>>> KEY <<<<<<<<<<<<<<<<<<<<<<<<<<< > < > SKY/WX - Sky Condition/Present Weather < > TMP - Temperature in Fahrenheit < > DP - Dew Point in Fahrenheit < > RH - Relative Humidity in Percent < > WIND - Direction (from) and Speed in MPH < > PRES - Mean Sea Level Pressure (inches of Hg) < > WCI - Wind Chill Index < > VSB - VISIBILITY IN MILES < > HX - HEAT INDEX < > TC - TEMPERATURE IN CELSIUS < > VRB - VARIABLE WIND DIRECTION < > < >>>>>>>>>>>>>>>>>>>>>>>>>>>> KEY <<<<<<<<<<<<<<<<<<<<<<<<<<<

USA.gov is the U.S. government's official web portal to all federal, state and local government web resources and services.